Location: T�bingen+AIT
(48.5342°N, 9.0700°E)
Time: 15:05:58
(UTC+01:00)

ATLAS CENTAUR R/B - Pass Details

Date: 14 September 2017
Orbit: 212 x 7324 km, 57.3° (Epoch: 21 September)

Event Time Altitude Azimuth Distance (km) Brightness Sun altitude
Rises 20:44:30 0° 303° (WNW) 9,235 9.8 -11.5°
Reaches altitude 10° 20:52:36 10° 304° (NW) 6,959 8.7 -12.8°
Maximum altitude 21:09:57 89° 221° (SW) 1,460 3.9 -15.5°
Enters shadow 21:14:01 23° 129° (SE) 1,919 4.0 -16.1°
